Flag for Germany Weather past 2 weeks in Sankt Ingbert, Saarland, Germany

Now
53 °F

Low clouds.


Feels Like: 52 °F
Forecast: 48 / 61 °F
Wind: 5 mph from Southwest

Location: Saarbruecken / Ensheim

Current Time: Apr 26, 2015 at 1:55:12 AM

Latest Report: Apr 26, 2015 at 1:00 AM


Visibility: 2 mi

Pressure: 29.86 "Hg

Humidity: 99%

Dew point: 53 °F

Location of Sankt IngbertLocation

Historic Weather in Sankt Ingbert — Graph

°F

Sankt Ingbert temperature yesterday

Maximum temperature yesterday: 58 °F (at 12:00 PM)
Minimum temperature yesterday: 51 °F (at 9:00 AM)
Average temperature yesterday: 54 °F

Past Weeks' High & Low Weather Summary

 TemperatureHumidityPressure
High76 °F (Apr 15, 5:00 PM)100% (Apr 12, 8:00 AM)30.49 "Hg (Apr 12, 8:00 AM)
Low35 °F (Apr 23, 5:00 AM)22% (Apr 15, 4:00 PM)29.82 "Hg (Apr 25, 7:00 PM)
Average54 °F58%30.17 "Hg
* Reported Midnight between Apr 10 and Apr 11 — Midnight between Apr 25 and Apr 26, Sankt Ingbert, Weather by CustomWeather, © 2015

Note: Actual official high and low records may vary slightly from our data, if they occured in-between our weather recording intervals... More about our weather records

Advertising

Sankt Ingbert weather history for previous 24 hours

 ConditionsComfort  
Time TempWeatherWind HumidityBarometerVisibility
12:00 AM
Sun, Apr 26
53 °FLight rain. Low clouds.5 mph99%29.87 "Hg2 mi
11:00 PM
Sat, Apr 25
53 °FLow clouds.3 mph99%29.86 "Hg6 mi
10:00 PM53 °FLow clouds.5 mph97%29.85 "Hg11 mi
9:00 PM53 °FLow clouds.3 mph96%29.84 "Hg22 mi
8:00 PM55 °FOvercast.3 mph92%29.83 "Hg31 mi
7:00 PM55 °FLight rain. Overcast.5 mph92%29.82 "Hg31 mi
6:00 PM56 °FOvercast.3 mph89%29.83 "Hg31 mi
5:00 PM55 °FLow clouds.2 mph92%29.83 "Hg12 mi
4:00 PM55 °FLight rain. Low clouds.6 mph91%29.84 "Hg5 mi
3:00 PM57 °FOvercast.3 mph79%29.84 "Hg11 mi
2:00 PM56 °FLight rain. Overcast.5 mph84%29.85 "Hg14 mi
1:00 PMN/APassing clouds.10 mphN/AN/A2 mi
12:00 PM58 °FOvercast.3 mph67%29.85 "Hg16 mi
11:00 AM56 °FOvercast.3 mph69%29.85 "Hg16 mi
10:00 AM53 °FLight rain. Overcast.1 mph76%29.86 "Hg12 mi
9:00 AM51 °FLight rain. Overcast.2 mph78%29.87 "Hg12 mi
8:00 AM51 °FLight rain. Overcast.1 mph74%29.86 "Hg12 mi
7:00 AM51 °FLight rain. Overcast.2 mph74%29.84 "Hg12 mi
6:00 AM52 °FLight rain. Overcast.1 mph61%29.84 "Hg16 mi
5:00 AM54 °FOvercast.3 mph54%29.85 "Hg16 mi
4:00 AM52 °FOvercast.2 mph58%29.85 "Hg16 mi
3:00 AM52 °FOvercast.1 mph62%29.86 "Hg16 mi
1:00 AM51 °FPassing clouds.1 mph65%29.89 "Hg19 mi
Weather by CustomWeather, © 2015

See weather overviewHow to use our weather pages